Billings, MT

2:10 PM MST on November 25, 2014 (GMT -0700)
Downtown Billings | Change Station
CLOSE
Current Station
Personal Weather Station
Location: Billings, MT
Elevation: 3127 ft
Nearby Weather Stations
Active Advisory: Winter Weather Advisory Active Notice: Local Storm Report

Elev 3127 ft 45.78 °N, 108.50 °W | Updated 9 minutes ago

Overcast
Overcast
39.8 °F
Feels Like 34 °F
N
9.6
Wind Variable Wind from North
Gusts 17.0 mph

Today
High -- | Low -- °F
--% Chance of Precip.
Yesterday
High -- | Low -- °F
Precip. -- in
7:27 AM 4:34 PM
Waxing Crescent, 14% visible
Pressure 30.04 in
Visibility 10.0 miles
Clouds Few 1500 ft
Mostly Cloudy 2400 ft
Overcast 7500 ft
Windchill 34 °F
Dew Point 33 °F
Humidity 77%
Rainfall -999.00 in
Snow Depth Not available.
UV 0 out of 12
Pollen .10 out of 12
Air Quality Not available.
Flu Activity Not available.
METAR KBIL 252053Z 36020G29KT 10SM FEW015 BKN024 OVC075 01/M02 A2997 RMK AO2 PK WND 36029/2044 SNB41E48 SLP171 VCSH SE-W P0000 60000 T00111022 53023 $

More Conditions Fewer Conditions

Pressure 30.04 in
Visibility 10.0 miles
Clouds Few 1500 ft
Mostly Cloudy 2400 ft
Overcast 7500 ft
Windchill 34 °F
Dew Point 33 °F
Humidity 77%
Rainfall -999.00 in
Snow Depth Not available.
UV 0 out of 12
Pollen .10 out of 12
Air Quality Not available.
Flu Activity Not available.
METAR KBIL 252053Z 36020G29KT 10SM FEW015 BKN024 OVC075 01/M02 A2997 RMK AO2 PK WND 36029/2044 SNB41E48 SLP171 VCSH SE-W P0000 60000 T00111022 53023 $

More Conditions Fewer Conditions

10-Day Weather Forecast

Almanac

Astronomy

Nov. 25, 2014 Rise Set
Actual Time
Civil Twilight
Nautical Twilight
Astronomical Twilight
Moon
Length of Visible Light
Length of Day
Tomorrow will be .
, % of the Moon is Illuminated

Today's Extremes

State Highs State Lows

Community

WunderPhotos

Upload Photos

1,773,588 photos uploaded!

WunderBlogs® & News

Nearby

Air Quality

  Air Quality AQ Index Pollutant
Not available.

Snow Depth

Station Depth Elevation

Earthquake Activity

City Distance Mag. Time & Date
Minimum magnitude displayed is 2.5.

Coastal Water Temperatures

Place Temperature

Nearby Weather Stations